Land O' Lakes, WI

7:39 AM CDT on September 21, 2017 (GMT -0500)
Kings Land O'Lakes

Weather History for KLNL - October, 2013

Change the Weather History Date:

Monday, October 7, 2013

  Actual Average (KEGV) Record (KEGV)
Temperature  
Mean Temperature 44 °F -  
Max Temperature 55 °F 54 °F 82 °F (2007)
Min Temperature 32 °F 38 °F 23 °F (2001)
Degree Days  
Heating Degree Days 22    
Moisture  
Dew Point 39 °F    
Average Humidity 81    
Maximum Humidity 100    
Minimum Humidity 47    
Precipitation  
Precipitation 0.00 in - - ()
Sea Level Pressure  
Sea Level Pressure 29.85 in    
Wind  
Wind Speed 7 mph (NW)    
Max Wind Speed 15 mph    
Max Gust Speed 23 mph    
Visibility 10 miles    
Events Rain    
Averages and records for this station are not official NWS values.
T = Trace of Precipitation, MM = Missing Value Source: NWS Daily Summary

Daily Weather History Graph

Daily Weather History Graph

Search for Another Location

Airport or City:

Trip Planner

Search our weather history database for the weather conditions in past years. The results will help you decide how hot, cold, wet, or windy it might be!

Date:

Astronomy

Oct. 07, 2013 Rise Set
Actual Time 7:03 AM CDT 6:24 PM CDT
Civil Twilight 6:33 AM CDT 6:54 PM CDT
Nautical Twilight 5:58 AM CDT 7:29 PM CDT
Astronomical Twilight 5:23 AM CDT 8:04 PM CDT
Moon 10:03 AM CDT (10/7) 7:58 PM CDT (10/7)
Length of Visible Light 12h 21m
Length of Day
11h 21m
Waxing Crescent, 9% of the Moon is Illuminated
Oct 7
Waxing Crescent
Oct 11
First Quarter
Oct 18
Full
Oct 26
Last Quarter
Nov 3
New

Hourly Weather History & Observations

Time (CDT) Temp. Windchill Dew Point Humidity Pressure Visibility Wind Dir Wind Speed Gust Speed Precip Events Conditions
12:15 AM 46.0 °F 42.5 °F 44.8 °F 95% 29.70 in 3.0 mi NNW 6.9 mph - N/A Rain Rain
12:35 AM 45.9 °F 40.8 °F 44.6 °F 95% 29.70 in 5.0 mi NNW 10.4 mph 16.1 mph N/A   Overcast
12:55 AM 45.5 °F 41.3 °F 44.1 °F 95% 29.70 in 4.0 mi NW 8.1 mph - N/A Rain Rain
1:15 AM 45.0 °F 40.6 °F 43.5 °F 95% 29.70 in 5.0 mi NW 8.1 mph 17.3 mph N/A   Drizzle
1:35 AM 44.8 °F 39.9 °F 42.8 °F 93% 29.70 in 10.0 mi NNW 9.2 mph 16.1 mph N/A   Overcast
1:55 AM 44.6 °F 40.2 °F 42.4 °F 92% 29.71 in 10.0 mi NNW 8.1 mph - N/A   Overcast
2:15 AM 44.6 °F 40.7 °F 42.1 °F 91% 29.71 in 10.0 mi NNW 6.9 mph - N/A   Overcast
2:35 AM 44.1 °F 39.0 °F 41.7 °F 91% 29.71 in 10.0 mi NNW 9.2 mph 16.1 mph N/A   Mostly Cloudy
2:55 AM 44.2 °F 40.3 °F 41.9 °F 91% 29.71 in 10.0 mi NNW 6.9 mph - N/A   Overcast
3:15 AM 44.2 °F 42.7 °F 42.3 °F 93% 29.72 in 10.0 mi NW 3.5 mph - N/A   Overcast
3:35 AM 44.6 °F 41.4 °F 42.4 °F 92% 29.72 in 10.0 mi NW 5.8 mph - N/A   Overcast
3:55 AM 44.2 °F 41.8 °F 42.1 °F 92% 29.72 in 10.0 mi NW 4.6 mph - N/A   Overcast
4:15 AM 44.1 °F 41.5 °F 42.3 °F 93% 29.72 in 10.0 mi NW 4.6 mph - N/A   Overcast
4:35 AM 44.1 °F 42.5 °F 42.3 °F 93% 29.73 in 10.0 mi WNW 3.5 mph - N/A   Overcast
4:55 AM 43.9 °F 40.5 °F 42.3 °F 94% 29.72 in 10.0 mi WNW 5.8 mph - N/A   Overcast
5:15 AM 43.2 °F 41.5 °F 41.5 °F 94% 29.72 in 10.0 mi WNW 3.5 mph - N/A   Mostly Cloudy
5:35 AM 42.8 °F 40.1 °F 41.4 °F 95% 29.72 in 10.0 mi WNW 4.6 mph - N/A   Scattered Clouds
5:55 AM 42.4 °F 40.7 °F 41.4 °F 96% 29.73 in 10.0 mi WNW 3.5 mph - N/A   Clear
6:15 AM 42.4 °F 38.1 °F 41.2 °F 95% 29.73 in 10.0 mi WNW 6.9 mph - N/A   Clear
6:35 AM 42.4 °F 38.8 °F 41.2 °F 95% 29.74 in 10.0 mi WNW 5.8 mph - N/A   Clear
6:55 AM 42.6 °F 38.4 °F 41.0 °F 94% 29.75 in 10.0 mi West 6.9 mph - N/A   Clear
7:15 AM 42.4 °F 38.1 °F 41.0 °F 95% 29.75 in 10.0 mi WNW 6.9 mph - N/A   Clear
7:35 AM 43.0 °F 38.2 °F 41.0 °F 93% 29.76 in 10.0 mi West 8.1 mph - N/A   Clear
7:55 AM 43.7 °F 40.3 °F 41.4 °F 91% 29.76 in 10.0 mi West 5.8 mph - N/A   Clear
8:15 AM 44.6 °F 40.7 °F 41.7 °F 90% 29.77 in 10.0 mi WNW 6.9 mph - N/A   Clear
8:35 AM 45.7 °F 42.7 °F 41.9 °F 87% 29.78 in 10.0 mi WNW 5.8 mph - N/A   Clear
8:55 AM 46.8 °F - 42.4 °F 85% 29.79 in 10.0 mi NW 6.9 mph - N/A   Clear
9:15 AM 47.8 °F - 43.0 °F 83% 29.80 in 10.0 mi WNW 8.1 mph - N/A   Clear
9:35 AM 48.6 °F - 43.0 °F 81% 29.80 in 10.0 mi WNW 8.1 mph - N/A   Clear
9:55 AM 49.1 °F - 42.3 °F 77% 29.81 in 10.0 mi NW 12.7 mph 16.1 mph N/A   Clear
10:15 AM 50.5 °F - 43.3 °F 76% 29.82 in 10.0 mi NW 9.2 mph - N/A   Clear
10:35 AM 50.9 °F - 42.8 °F 74% 29.82 in 10.0 mi NW 13.8 mph 19.6 mph N/A   Clear
10:55 AM 51.1 °F - 41.9 °F 71% 29.83 in 10.0 mi NNW 10.4 mph 16.1 mph N/A   Mostly Cloudy
11:15 AM 52.2 °F - 42.3 °F 69% 29.84 in 10.0 mi NW 9.2 mph 17.3 mph N/A   Mostly Cloudy
11:35 AM 52.9 °F - 40.6 °F 63% 29.84 in 10.0 mi NW 10.4 mph 19.6 mph N/A   Mostly Cloudy
11:55 AM 53.6 °F - 40.5 °F 61% 29.86 in 10.0 mi NW 12.7 mph 20.7 mph N/A   Mostly Cloudy
12:15 PM 53.6 °F - 38.7 °F 57% 29.86 in 10.0 mi WNW 15.0 mph 18.4 mph N/A   Scattered Clouds
12:35 PM 54.0 °F - 36.5 °F 52% 29.87 in 10.0 mi NW 13.8 mph 21.9 mph N/A   Clear
12:55 PM 53.8 °F - 36.7 °F 52% 29.87 in 10.0 mi West 12.7 mph 18.4 mph N/A   Scattered Clouds
1:15 PM 55.6 °F - 36.3 °F 48% 29.87 in 10.0 mi NW 13.8 mph 19.6 mph N/A   Scattered Clouds
1:35 PM 52.9 °F - 36.3 °F 53% 29.87 in 10.0 mi NNW 9.2 mph 18.4 mph N/A   Scattered Clouds
1:55 PM 55.2 °F - 37.0 °F 50% 29.88 in 10.0 mi NNW 12.7 mph 17.3 mph N/A   Scattered Clouds
2:15 PM 54.3 °F - 36.3 °F 51% 29.89 in 10.0 mi WNW 9.2 mph - N/A   Scattered Clouds
2:35 PM 54.5 °F - 35.8 °F 49% 29.89 in 10.0 mi WNW 9.2 mph 17.3 mph N/A   Scattered Clouds
2:55 PM 55.0 °F - 34.9 °F 47% 29.90 in 10.0 mi NW 12.7 mph 23.0 mph N/A   Scattered Clouds
3:15 PM 53.4 °F - 35.2 °F 50% 29.91 in 10.0 mi NW 10.4 mph - N/A   Clear
3:35 PM 54.7 °F - 34.9 °F 47% 29.91 in 10.0 mi NW 12.7 mph 17.3 mph N/A   Scattered Clouds
3:55 PM 52.3 °F - 34.7 °F 51% 29.92 in 10.0 mi WNW 12.7 mph - N/A   Clear
4:15 PM 54.1 °F - 34.7 °F 48% 29.93 in 10.0 mi NW 9.2 mph - N/A   Scattered Clouds
4:35 PM 53.8 °F - 35.8 °F 51% 29.94 in 10.0 mi NW 6.9 mph - N/A   Scattered Clouds
4:55 PM 53.2 °F - 36.3 °F 53% 29.94 in 10.0 mi NNW 9.2 mph - N/A   Clear
5:15 PM 52.7 °F - 36.5 °F 54% 29.94 in 10.0 mi NNW 6.9 mph - N/A   Clear
5:35 PM 52.2 °F - 37.6 °F 58% 29.94 in 10.0 mi Calm Calm - N/A   Clear
5:55 PM 50.9 °F - 38.7 °F 63% 29.95 in 10.0 mi Calm Calm - N/A   Clear
6:15 PM 46.0 °F - 40.1 °F 80% 29.95 in 10.0 mi Calm Calm - N/A   Clear
6:35 PM 43.5 °F - 40.1 °F 88% 29.96 in 10.0 mi Calm Calm - N/A   Clear
6:55 PM 41.2 °F - 39.2 °F 93% 29.96 in 10.0 mi Calm Calm - N/A   Clear
7:15 PM 39.2 °F - 37.9 °F 95% 29.97 in 10.0 mi Calm Calm - N/A   Clear
7:35 PM 38.3 °F - 37.6 °F 97% 29.98 in 10.0 mi Calm Calm - N/A   Clear
7:55 PM 37.2 °F - 36.5 °F 97% 29.99 in 10.0 mi Calm Calm - N/A   Clear
8:15 PM 36.5 °F - 35.8 °F 97% 30.00 in 10.0 mi Calm Calm - N/A   Clear
8:35 PM 35.2 °F - 34.7 °F 98% 30.00 in 10.0 mi Calm Calm - N/A   Clear
8:55 PM 35.1 °F - 34.7 °F 99% 30.01 in 10.0 mi Calm Calm - N/A   Clear
9:15 PM 34.3 °F - 34.2 °F 99% 30.01 in 10.0 mi Calm Calm - N/A   Clear
9:35 PM 34.0 °F - 33.8 °F 99% 30.02 in 10.0 mi Calm Calm - N/A   Clear
9:55 PM 33.3 °F - 33.1 °F 99% 30.02 in 10.0 mi Calm Calm - N/A   Clear
10:15 PM 33.1 °F - 33.1 °F 100% 30.03 in 10.0 mi Calm Calm - N/A   Clear
10:35 PM 32.9 °F - 32.7 °F 99% 30.03 in 10.0 mi Calm Calm - N/A   Clear
10:55 PM 32.4 °F - 32.4 °F 100% 30.03 in 10.0 mi Calm Calm - N/A   Clear
11:15 PM 32.4 °F - 32.4 °F 100% 30.03 in 10.0 mi Calm Calm - N/A   Clear
11:35 PM 32.0 °F - 32.0 °F 100% 30.03 in 10.0 mi Calm Calm - N/A   Clear
11:55 PM 32.2 °F - 32.2 °F 100% 30.04 in 10.0 mi Calm Calm - N/A   Clear